Regional Weather Roundup
Issued by NWS

Home | Current Version | Previous Version | Text Only | Print | Product List | Glossary On
Versions: 1 2 3 4 5 6 7 8 9 10 11 12 13 14 15 16 17 18 19 20 21 22 23 24 25 26 27 28 29 30 31 32 33 34 35 36 37 38 39 40 41 42 43 44 45 46 47 48 49 50
000
ASUS43 KIND 070009
RWRIN

WEATHER ROUNDUP FOR INDIANA
NATIONAL WEATHER SERVICE INDIANAPOLIS IN
700 PM EST SAT MAR 06 2021

NOTE: "FAIR" INDICATES FEW OR NO CLOUDS BELOW 12,000 FEET WITH NO
SIGNIFICANT WEATHER AND/OR OBSTRUCTIONS TO VISIBILITY.

* - STATION DOES NOT REPORT WEATHER SUCH AS PRECIPITATION OR FOG.

+ - STATION NOT QUALITY CONTROLLED BY THE NATIONAL WEATHER SERVICE.
    USE DATA WITH CAUTION...ESPECIALLY DEWPOINT AND RELATIVE
    HUMIDITY OBSERVATIONS.

INZ001>003-010>013-019-020-070100-
NORTHWEST INDIANA

CITY           SKY/WX    TMP DP  RH WIND       PRES   REMARKS
GARY /AIRPORT/ CLEAR     34  28  80 NE8       30.33R WCI  27
KNOX *+        CLEAR     34  21  60 N7        30.30R WCI  28
LA PORTE +     CLEAR     32  23  67 N6        30.31S WCI  27
6HR MIN TEMP:  32; 6HR MAX TEMP:  44;

MICHIGAN CITY+ CLEAR     32  27  80 NE3       30.33R
MONTICELLO +   CLOUDY    45  22  41 N7        30.28R
6HR MIN TEMP:  41; 6HR MAX TEMP:  48;

RENSSELAER +   PTCLDY    39  27  60 N3        30.29S
VALPARAISO     CLEAR     35  20  54 N7        30.31R WCI  29
6HR MIN TEMP:  35; 6HR MAX TEMP:  48;


$$

LMZ046-743>745-070100-
SOUTHERN LAKE MICHIGAN

STATION/POSITION TIME  TEMP    WIND        PRES    WAVE
                       AIR SEA DIR/SP/G            HT
                 (UTC) (F)     (DEG/KT/KT) (MB)    (FT)
BURNS HARBOR     2340   35      50/  6/  8 1027.1R
MICHIGAN CITY    2340   34      50/  9/ 10   N/A

$$

INZ004-005-014>016-021>024-070100-
NORTH CENTRAL INDIANA

CITY           SKY/WX    TMP DP  RH WIND       PRES   REMARKS
GOSHEN         CLEAR     35  17  47 NW12      30.29R WCI  27
6HR MIN TEMP:  35; 6HR MAX TEMP:  44;

LOGANSPORT +   CLEAR     39  23  52 CALM      30.30R
PERU/GRISSOM   CLEAR     42  22  45 NW6       30.27S
6HR MIN TEMP:  42; 6HR MAX TEMP:  46;

PLYMOUTH *+    CLEAR     37  16  41 N6        30.29S WCI  33
ROCHESTER +    CLEAR     41  18  38 N6        30.30R
SOUTH BEND     CLEAR     32  18  56 N8        30.32R WCI  25
6HR MIN TEMP:  32; 6HR MAX TEMP:  44;

WARSAW +       CLEAR     36  18  48 NW6       30.29R WCI  31

$$

INZ006>009-017-018-025>027-070100-
NORTHEAST INDIANA

CITY           SKY/WX    TMP DP  RH WIND       PRES   REMARKS
ANGOLA *+      CLEAR     34  16  47 NW10      30.26S WCI  26
AUBURN +       CLEAR     36  18  48 NW8       30.27S WCI  29
FORT WAYNE     PTCLDY    39  17  41 NW8       30.27S WCI  33
6HR MIN TEMP:  39; 6HR MAX TEMP:  44;

HUNTINGTON +   CLEAR     38  19  45 NW3       30.28S
6HR MIN TEMP:  38; 6HR MAX TEMP:  44;

KENDALLVILLE + FAIR      37  17  43 NW6       30.27R WCI  33

$$

INZ028-029-035-036-043>045-051>053-070100-
WEST CENTRAL INDIANA

CITY           SKY/WX    TMP DP  RH WIND       PRES   REMARKS
CRAWFORDSVL +  PTCLDY    40  23  51 CALM      30.28S
6HR MIN TEMP:  40; 6HR MAX TEMP:  46;

GREENCASTLE +  FAIR      42  23  48 NW5       30.29S
LAFAYETTE      CLEAR     48  24  39 N5        30.28S
6HR MIN TEMP:  47; 6HR MAX TEMP:  54;

TERRE HAUTE    PTCLDY    46  25  43 NW5       30.29F
6HR MIN TEMP:  46; 6HR MAX TEMP:  52;


$$

INZ030>032-037>040-046>048-054>057-064-065-070100-
CENTRAL INDIANA

CITY           SKY/WX    TMP DP  RH WIND       PRES   REMARKS
ANDERSON +     CLEAR     39  22  49 CALM      30.30R
COLUMBUS       CLEAR     39  23  52 N6        30.30S WCI  35
FRANKFORT +    CLOUDY    43  23  45 CALM      30.28S
INDIANAPOLIS   PTCLDY    42  22  44 N6        30.29S
6HR MIN TEMP:  42; 6HR MAX TEMP:  49;

-EAGLE CREEK   CLEAR     43  24  47 CALM      30.28S
6HR MIN TEMP:  43; 6HR MAX TEMP:  48;

KOKOMO +       PTCLDY    39  24  55 NW3       30.29S
6HR MIN TEMP:  39; 6HR MAX TEMP:  46;

MARION +       CLEAR     38  26  61 NW3       30.29S
MT COMFORT *+  CLEAR     37  27  65 CALM      30.29S
SHELBYVILLE    CLEAR     43  21  41 NW5       30.29R
6HR MIN TEMP:  42; 6HR MAX TEMP:  50;


$$

INZ033-034-041-042-049-050-058-059-070100-
EAST CENTRAL INDIANA

CITY           SKY/WX    TMP DP  RH WIND       PRES   REMARKS
MUNCIE         CLEAR     41  20  43 NW12      30.28S
6HR MIN TEMP:  40; 6HR MAX TEMP:  46;

PORTLAND +     FAIR      39  14  35 W5        30.26R WCI  36
RICHMOND +     FAIR      34  23  64 NW6       30.29R WCI  29

$$

INZ060-061-067>069-081>083-085>088-070100-
SOUTHWEST INDIANA

CITY           SKY/WX    TMP DP  RH WIND       PRES   REMARKS
EVANSVILLE     CLEAR     49  22  34 CALM      30.32R
6HR MIN TEMP:  49; 6HR MAX TEMP:  56;

HUNTINGBURG +  CLEAR     46  22  38 N3        30.31R
6HR MIN TEMP:  46; 6HR MAX TEMP:  51;

WASHINGTON +   CLEAR     44  26  49 NW3       30.30S
6HR MIN TEMP:  44; 6HR MAX TEMP:  51;


$$

INZ062-063-066-070>080-084-089>092-070100-
SOUTH CENTRAL AND SOUTHEAST INDIANA

CITY           SKY/WX    TMP DP  RH WIND       PRES   REMARKS
BATESVILLE +   CLEAR     39  18  41 CALM      30.28S
BLOOMINGTON    CLEAR     46  19  34 NW5       30.28S
6HR MIN TEMP:  46; 6HR MAX TEMP:  52;

JEFFERSONVL +  FAIR      44  21  40 CALM      30.30R
6HR MIN TEMP:  44; 6HR MAX TEMP:  51;

MADISON *+     CLEAR     41  19  42 CALM      30.31R

$$





USA.gov is the U.S. government's official web portal to all federal, state and local government web resources and services.